P/2007 B3 = 1977 O1 (Garradd)

Epoch 2008 Apr. 4.0 TT = JDT 2454560.5  

T 2008 Mar. 20.50086 TT                                 Nakano

q   4.2634744            (2000.0)            P               Q

n   0.09267459     Peri.  278.74408     -0.33192787     +0.90770982

a   4.8361036      Node   327.85450     -0.55709180     -0.40822063

e   0.1184071      Incl.   28.84387     -0.76123098     -0.09705047

P  10.64

From 49 observations 1975-2007, mean residual 0".60.

Residuals in seconds of arc 

1975/                     070126 808  0.2+  0.9-    070206 E12  0.3+  0.4+  

750531 260  0.7-  0.1-    070126 423  0.9-  0.5-    070207 E12  0.1-  0.3-  

750603 260  0.5-  0.9-    070127 H06 (0.7+  2.2+)   070207 E12  0.3-  0.3-  

1977/                     070127 H06 (2.2-  5.5+)   070211 372  0.1+  0.2+  

770718 413  0.5-  1.3-    070128 147  0.7-  1.1+    070212 349  0.2+  0.4+  

770718 413 (3.4+  1.5-)   070128 147  0.2+  1.0+    070212 372  1.0-  0.3+  

770719 413  1.4-  1.1+    070128 147  0.8+  0.2-    070212 349  0.2-  0.2+  

770719 413  1.6+  0.5+    070128 H36  0.0   0.6+    070212 372  0.0   0.4+  

1996/                     070128 H36  0.1-  0.5+    070214 423  0.7-  0.3+  

960226 260  0.3+  0.4-    070128 H36  0.3+  0.5-    070214 423  0.2-  0.2+  

2007/                     070129 808  0.4-  0.7-    070216 415  0.7+  0.7-  

070125 E12  0.6-  1.2+    070129 808  1.0+  0.1+    070216 415  1.7+  0.1-  

070125 E12  0.5-  0.7+    070129 E12  0.0   0.3+    070217 673  0.5+  0.6-  

070125 E12  0.2-  0.6+    070129 415  0.5+  0.2-    070217 673  0.1+  1.1-  

070125 E12  0.5-  0.6+    070129 415  0.5+  0.4-    070217 423  0.4-  0.4+  

070126 808  0.0   0.1-    070129 E12  0.6-  0.1+    070217 423  0.4-  0.6+  

070126 808  0.5+  0.6-    070130 E12  0.2+  0.0     070222 415  0.1+  0.4-  

070126 808  0.4+  0.9-    070131 E12  0.2-  0.3+    070222 415  0.3+  0.3-  

070126 808  0.6+  0.6-    070131 E12  0.5-  0.5+                            

NAKANO

         **** Don't distribute anyone except personal use only ****

                (C) Copyright 2007 OAA/ComputingSection

write mail from CFAD0::NAKANO on 2007-03-05 06:21:26(JST).

 



◎P/2007 B3の軌道と予報位置



 上尾の門田健一氏から2月12日の観測が報告されました.氏のCCD全光度は

17.9等でした(cf. YC 2545).



    P/2007 B3 (Garradd)

T 2008 Mar. 18.10355 TT                                 Nakano

q   4.2650344            (2000.0)            P               Q

n   0.09293716     Peri.  278.42478     -0.33694292     +0.90588811

a   4.8269906      Node   327.85959     -0.55493117     -0.41123083

e   0.1164196      Incl.   28.83622     -0.76060559     -0.10127164

P  10.61 (+/- 4.94 days)

From 30 observations 2007 Jan. 25-Feb. 12.

 

Date/        TT  R.A.(2000) Decl.     Delta   r     Daily motion  Mag.  Moon Age

              h    h  m       。  ,                      ,  / PA 。  m1      。

2007 Feb. 15 18  13 05.47  -34 51.4   3.902  4.404     7.7 / 203  17.8   90  .05

          16 18  13 05.23  -34 58.4   3.889  4.404     7.7 / 205  17.8  103  .01

          17 18  13 04.96  -35 05.4   3.876  4.403     7.6 / 207  17.8  116  .00

          18 18  13 04.68  -35 12.2   3.864  4.402     7.6 / 209  17.8  130  .02

          19 18  13 04.38  -35 18.9   3.851  4.402     7.7 / 210  17.8  142  .06

          20 18  13 04.07  -35 25.5   3.839  4.401     7.7 / 212  17.7  152  .13

          21 18  13 03.73  -35 32.0   3.827  4.400     7.7 / 214  17.7  157  .22

          22 18  13 03.38  -35 38.4   3.815  4.400     7.7 / 216  17.7  154  .32

          23 18  13 03.01  -35 44.6   3.803  4.399     7.7 / 217  17.7  146  .44

          24 18  13 02.63  -35 50.7   3.791  4.399     7.7 / 219  17.7  135  .55

          25 18  13 02.22  -35 56.7   3.780  4.398     7.8 / 221  17.7  123  .65

          26 18  13 01.80  -36 02.6   3.768  4.397     7.8 / 223  17.7  111  .75

          27 18  13 01.37  -36 08.3   3.757  4.397     7.8 / 224  17.7   99  .83

          28 18  13 00.92  -36 13.9   3.746  4.396     7.9 / 226  17.7   88  .90

     Mar.  1 18  13 00.45  -36 19.4   3.735  4.395     7.9 / 228  17.7   76  .95

           2 18  12 59.96  -36 24.7   3.725  4.395     8.0 / 229  17.7   65  .99

           3 18  12 59.46  -36 29.9   3.714  4.394     8.0 / 231  17.7   54 1.00

           4 18  12 58.95  -36 34.9   3.704  4.393     8.0 / 233  17.7   44  .99

           5 18  12 58.42  -36 39.8   3.694  4.393     8.1 / 234  17.7   35  .97

           6 18  12 57.87  -36 44.5   3.684  4.392     8.1 / 236  17.7   28  .93

           7 18  12 57.31  -36 49.1   3.674  4.391     8.2 / 237  17.6   25  .88

           8 18  12 56.73  -36 53.6   3.665  4.391     8.3 / 239  17.6   26  .81

           9 18  12 56.14  -36 57.8   3.656  4.390     8.3 / 240  17.6   32  .73

          10 18  12 55.54  -37 01.9   3.647  4.390     8.4 / 242  17.6   41  .64

          11 18  12 54.93  -37 05.9   3.638  4.389     8.4 / 243  17.6   51  .54

          12 18  12 54.30  -37 09.7   3.629  4.388     8.5 / 245  17.6   62  .44

          13 18  12 53.65  -37 13.3   3.621  4.388     8.5 / 246  17.6   73  .34

          14 18  12 53.00  -37 16.8   3.613  4.387     8.6 / 247  17.6   85  .24

          15 18  12 52.33  -37 20.0   3.605  4.386     8.7 / 249  17.6   98  .15

          16 18  12 51.66  -37 23.2   3.597  4.386     8.7 / 250  17.6  111  .08

          17 18  12 50.97  -37 26.1   3.589  4.385     8.8 / 252  17.6  124  .03

          18 18  12 50.27  -37 28.9   3.582  4.385     8.8 / 253  17.6  136  .00

          19 18  12 49.56  -37 31.4   3.575  4.384     8.9 / 254  17.6  147  .01

          20 18  12 48.85  -37 33.9   3.568  4.383     8.9 / 255  17.6  153  .04

          21 18  12 48.12  -37 36.1   3.562  4.383     9.0 / 257  17.6  153  .10

          22 18  12 47.39  -37 38.1   3.555  4.382     9.0 / 258  17.6  145  .19

          23 18  12 46.65  -37 40.0   3.549  4.382     9.0 / 259  17.6  135  .28

          24 18  12 45.90  -37 41.7   3.544  4.381     9.1 / 260  17.6  123  .39

          25 18  12 45.14  -37 43.2   3.538  4.380     9.1 / 262  17.6  111  .50

          26 18  12 44.38  -37 44.5   3.533  4.380     9.1 / 263  17.6  100  .60

          27 18  12 43.62  -37 45.7   3.528  4.379     9.2 / 264  17.5   88  .70

          28 18  12 42.85  -37 46.7   3.523  4.378     9.2 / 265  17.5   77  .79

          29 18  12 42.08  -37 47.5   3.518  4.378     9.2 / 266  17.5   66  .86

          30 18  12 41.30  -37 48.1   3.514  4.377     9.2 / 267  17.5   56  .92

          31 18  12 40.52  -37 48.5   3.510  4.377     9.3 / 268  17.5   46  .97

     Apr.  1 18  12 39.74  -37 48.8   3.506  4.376     9.3 / 269  17.5   37  .99

NAKANO

         **** Don't distribute anyone except personal use only ****

                (C) Copyright 2007 OAA/ComputingSection

write mail from CFAD0::NAKANO on 2007-02-16 23:05:34(JST).

 





    P/2007 B3 (Garradd)

T 2008 Apr. 8.16590 TT                                  Nakano

q   4.2455616            (2000.0)            P               Q

n   0.09340651     Peri.  281.10123     -0.29476375     +0.92044094

a   4.8108073      Node   327.82907     -0.57351810     -0.38529291

e   0.1174950      Incl.   28.82545     -0.76432409     -0.06586233

P  10.55 (+/- 9.35 days)

From 28 observations 2007 Jan. 25-Feb. 7.

Residuals in seconds of arc 

2007/                     070127 H06 (0.7+  2.1+)   070129 415  0.4+  0.2-  

070125 E12  0.5-  1.1+    070127 H06 (2.2-  5.4+)   070129 415  0.5+  0.5-  

070125 E12  0.4-  0.6+    070128 147  0.7-  1.0+    070129 E12  0.7-  0.0   

070125 E12  0.1-  0.5+    070128 147  0.2+  0.9+    070130 E12  0.1+  0.1-  

070125 E12  0.4-  0.6+    070128 147  0.7+  0.3-    070131 E12  0.4-  0.2+  

070126 808  0.1+  0.1-    070128 H36  0.1-  0.5+    070131 E12  0.7-  0.4+  

070126 808  0.6+  0.6-    070128 H36  0.2-  0.4+    070206 E12  0.4+  0.5+  

070126 808  0.4+  0.9-    070128 H36  0.2+  0.6-    070207 E12  0.0   0.3-  

070126 808  0.7+  0.7-    070129 808  0.4-  0.8-    070207 E12  0.2-  0.2-  

070126 808  0.3+  1.0-    070129 808  1.0+  0.0                             

070126 423  0.8-  0.6-    070129 E12  0.0   0.2+                            



NAKANO

         **** Don't distribute anyone except personal use only ****

                (C) Copyright 2007 OAA/ComputingSection

write mail from CFAD0::NAKANO on 2007-02-11 07:48:38(JST).

 









戻ります。